Notices

What's New in latest Release from April 7th, 2021:

- Updated Glossary, including Speed of Maximum Gust, and Total Hourly Precipitation

- Updated national and regional climate services offices contacts and prices information

- Addition of station inventory lists for 1981-2010, 1971-2000, and 1961-1990 Normals.

If you haven't already, please take our survey and provide feedback about our website: https://eccc.sondage-survey.ca/f/LanguageSelection.aspx?s=442ca660-fcf1-47c0-95a9-59707d6fd709

Hourly Data Report for October 20, 2019

SAINT JOHN A
NEW BRUNSWICK
Current Station Operator: NAVCAN

45°18'58.000" N
65°53'24.000" W
108.80 m
8104901
71609
YSJ

Download Data

Hourly Data (October 2019)
Hourly Data Report for October 20, 2019
TIME
LST
Temp Definition
°C
Dew Point Definition
°C
Rel Hum Definition
%
Precip. Amount Definition
mm

Wind Dir Definition
10's deg

Wind Spd Definition
km/h
Visibility Definition
km
Stn Press Definition
kPa
Hmdx Definition


Wind Chill Definition


Weather Definition


00:00 4.4 1.5 81   28 8 24.1 100.17     LegendNANA
01:00 2.7 0.7 87   29 9 24.1 100.18     LegendNANA
02:00 1.1 0.0 92   33 7 24.1 100.21     Mainly Clear
03:00 1.2 0.5 95   3 4 24.1 100.23     LegendNANA
04:00 1.4 -0.3 89   36 4 24.1 100.29     LegendNANA
05:00 -0.3 -1.0 95   16 5 24.1 100.34   -2 Mainly Clear
06:00 -0.6 -1.3 95   36 2 24.1 100.38   -1 LegendNANA
07:00 -1.3 -1.7 97   30 5 24.1 100.45   -3 LegendNANA
08:00 2.0 1.0 93   36 1 24.1 100.50     Clear
09:00 6.7 2.5 75   31 13 24.1 100.51     LegendNANA
10:00 9.1 2.3 62   33 17 24.1 100.51     LegendNANA
11:00 10.5 1.6 54   31 19 24.1 100.53     Mainly Clear
12:00 11.4 1.2 49   32 14 24.1 100.49     LegendNANA
13:00 12.6 1.1 45   30 10 24.1 100.44     LegendNANA
14:00 13.3 1.3 44   27 10 24.1 100.46     Mainly Clear
15:00 13.4 1.0 42   30 7 24.1 100.44     LegendNANA
16:00 11.1 5.3 68   21 16 24.1 100.48     LegendNANA
17:00 10.6 5.5 71   22 12 24.1 100.49     Mainly Clear
18:00 7.9 5.5 85   22 5 24.1 100.51     LegendNANA
19:00 5.5 4.5 93   15 8 24.1 100.54     LegendNANA
20:00 5.1 4.1 93   21 3 24.1 100.54     Mainly Clear
21:00 4.7 4.1 96   36 2 24.1 100.58     LegendNANA
22:00 2.7 2.3 97   36 1 24.1 100.59     LegendNANA
23:00 2.7 2.4 97   35 3 24.1 100.59     Mostly Cloudy

Notes on Data Quality.

Legend

  • E = Estimated
  • M = Missing
  • NA = Not Available*
  • [empty] = Indicates an unobserved value
Date modified: